| time (UTC) | temp F | wind direction | speed knots | gust knots | rain 1hr in | rain 24hr in | rain mn in | humidity % | barometer mb |
| 20260503033022 | 37 | 207 | 2.6 | 0.0 | 0.00 | 0.00 | 0.00 | 68 | 987.4 |
| 20260503031505 | 38 | 208 | 3.5 | 0.0 | 0.00 | 0.00 | 0.00 | 68 | 987.5 |
| 20260503030024 | 38 | 217 | 3.5 | 0.0 | 0.00 | 0.00 | 0.00 | 68 | 987.5 |
| 20260503024505 | 39 | 221 | 3.5 | 0.0 | 0.00 | 0.00 | 0.00 | 59 | 988.4 |
| 20260503023021 | 39 | 231 | 3.5 | 0.0 | 0.00 | 0.00 | 0.00 | 63 | 987.8 |
| 20260503021505 | 39 | 235 | 5.2 | 0.0 | 0.00 | 0.00 | 0.00 | 63 | 987.8 |
| 20260503020024 | 40 | 237 | 5.2 | 0.0 | 0.00 | 0.00 | 0.00 | 63 | 987.8 |
| 20260503014505 | 41 | 240 | 6.1 | 0.0 | 0.00 | 0.00 | 0.00 | 55 | 987.4 |
| 20260503013020 | 41 | 242 | 6.1 | 0.0 | 0.00 | 0.00 | 0.00 | 55 | 987.4 |
| 20260503011506 | 42 | 240 | 5.2 | 0.0 | 0.00 | 0.00 | 0.00 | 55 | 987.4 |
| 20260503010022 | 42 | 242 | 5.2 | 0.0 | 0.00 | 0.00 | 0.00 | 55 | 987.4 |
| 20260503004505 | 43 | 242 | 5.2 | 0.0 | 0.00 | 0.00 | 0.00 | 39 | 988.4 |
| 20260503003013 | 44 | 239 | 5.2 | 0.0 | 0.00 | 0.00 | 0.00 | 39 | 988.4 |
| 20260503001506 | 45 | 251 | 4.3 | 0.0 | 0.00 | 0.00 | 0.00 | 39 | 988.4 |
| 20260503000017 | 46 | 264 | 5.2 | 0.0 | 0.00 | 0.00 | 0.00 | 39 | 988.4 |
| 20260502234505 | 47 | 270 | 7.0 | 0.0 | 0.00 | 0.00 | 0.00 | 34 | 988.2 |
| 20260502233011 | 48 | 273 | 7.8 | 0.0 | 0.00 | 0.00 | 0.00 | 34 | 988.2 |
| 20260502231505 | 48 | 273 | 8.7 | 0.0 | 0.00 | 0.00 | 0.00 | 34 | 988.2 |
| 20260502230024 | 48 | 274 | 8.7 | 0.0 | 0.00 | 0.00 | 0.00 | 34 | 988.2 |
| 20260502224505 | 48 | 273 | 9.6 | 0.0 | 0.00 | 0.00 | 0.00 | 35 | 988.6 |
| 20260502223021 | 48 | 272 | 10.4 | 0.0 | 0.00 | 0.00 | 0.00 | 33 | 989.3 |
| 20260502221505 | 48 | 271 | 10.4 | 0.0 | 0.00 | 0.00 | 0.00 | 33 | 989.3 |
| 20260502220018 | 49 | 270 | 10.4 | 0.0 | 0.00 | 0.00 | 0.00 | 33 | 989.3 |
| 20260502214505 | 49 | 271 | 10.4 | 0.0 | 0.00 | 0.00 | 0.00 | 34 | 989.3 |
| 20260502213021 | 49 | 270 | 9.6 | 0.0 | 0.00 | 0.00 | 0.00 | 37 | 989.2 |
| 20260502211505 | 49 | 264 | 9.6 | 0.0 | 0.00 | 0.00 | 0.00 | 37 | 989.1 |
| 20260502210023 | 49 | 262 | 9.6 | 0.0 | 0.00 | 0.00 | 0.00 | 37 | 989.1 |
| 20260502204505 | 49 | 260 | 9.6 | 0.0 | 0.00 | 0.00 | 0.00 | 33 | 989.5 |
| 20260502203021 | 49 | 265 | 9.6 | 0.0 | 0.00 | 0.00 | 0.00 | 33 | 990.0 |
| 20260502201505 | 49 | 269 | 9.6 | 0.0 | 0.00 | 0.00 | 0.00 | 33 | 990.0 |
| 20260502200023 | 49 | 269 | 10.4 | 0.0 | 0.00 | 0.00 | 0.00 | 33 | 990.0 |
| 20260502194505 | 48 | 270 | 9.6 | 0.0 | 0.00 | 0.00 | 0.00 | 32 | 990.2 |
| 20260502193013 | 48 | 272 | 10.4 | 0.0 | 0.00 | 0.00 | 0.00 | 32 | 990.2 |
| 20260502191505 | 49 | 275 | 10.4 | 0.0 | 0.00 | 0.00 | 0.00 | 32 | 990.2 |
| 20260502190023 | 48 | 274 | 10.4 | 0.0 | 0.00 | 0.00 | 0.00 | 32 | 990.2 |
| 20260502184505 | 48 | 273 | 10.4 | 0.0 | 0.00 | 0.00 | 0.00 | 43 | 990.3 |
| 20260502183021 | 47 | 283 | 9.6 | 0.0 | 0.00 | 0.00 | 0.00 | 43 | 990.2 |
| 20260502181504 | 47 | 274 | 9.6 | 0.0 | 0.00 | 0.00 | 0.00 | 43 | 990.2 |
| 20260502163021 | 46 | 279 | 7.0 | 0.0 | 0.00 | 0.00 | 0.00 | 40 | 989.6 |
| 20260502161505 | 45 | 279 | 7.0 | 0.0 | 0.00 | 0.00 | 0.00 | 40 | 989.6 |
| 20260502151506 | 43 | 287 | 6.1 | 0.0 | 0.00 | 0.00 | 0.00 | 50 | 989.8 |
| 20260502123020 | 35 | 325 | 3.5 | 0.0 | 0.00 | 0.00 | 0.00 | 81 | 990.5 |
| 20260502121505 | 34 | 330 | 3.5 | 0.0 | 0.00 | 0.00 | 0.00 | 81 | 990.5 |
| 20260502114505 | 32 | 315 | 2.6 | 0.0 | 0.00 | 0.00 | 0.00 | 84 | 990.3 |
| 20260502113022 | 32 | 292 | 1.7 | 0.0 | 0.00 | 0.00 | 0.00 | 87 | 990.1 |
| 20260502111505 | 31 | 288 | 1.7 | 0.0 | 0.00 | 0.00 | 0.00 | 87 | 990.1 |
| 20260502110024 | 31 | 284 | 1.7 | 0.0 | 0.00 | 0.00 | 0.00 | 87 | 990.1 |
| 20260502104505 | 31 | 270 | 1.7 | 0.0 | 0.00 | 0.00 | 0.00 | 86 | 989.9 |
| 20260502103020 | 31 | 270 | 1.7 | 0.0 | 0.00 | 0.00 | 0.00 | 89 | 990.1 |
| 20260502101505 | 31 | 270 | 1.7 | 0.0 | 0.00 | 0.00 | 0.00 | 89 | 990.1 |
| 20260502091505 | 31 | 275 | 1.7 | 0.0 | 0.00 | 0.00 | 0.00 | 89 | 989.6 |
| 20260502071505 | 31 | 318 | 2.6 | 0.0 | 0.00 | 0.00 | 0.00 | 78 | 989.0 |
| 20260502070018 | 32 | 317 | 2.6 | 0.0 | 0.00 | 0.00 | 0.00 | 78 | 989.0 |
| 20260502064505 | 32 | 311 | 3.5 | 0.0 | 0.00 | 0.00 | 0.00 | 73 | 990.0 |
| 20260502063022 | 32 | 292 | 2.6 | 0.0 | 0.00 | 0.00 | 0.00 | 76 | 989.9 |
| 20260502061505 | 32 | 287 | 2.6 | 0.0 | 0.00 | 0.00 | 0.00 | 76 | 989.9 |
| 20260502060025 | 32 | 291 | 2.6 | 0.0 | 0.00 | 0.00 | 0.00 | 76 | 989.9 |
| 20260502054505 | 33 | 295 | 2.6 | 0.0 | 0.00 | 0.00 | 0.00 | 72 | 989.2 |
| 20260502053021 | 33 | 300 | 2.6 | 0.0 | 0.00 | 0.00 | 0.00 | 74 | 989.6 |
| 20260502051505 | 33 | 315 | 3.5 | 0.0 | 0.00 | 0.00 | 0.00 | 74 | 989.6 |
| 20260502050023 | 33 | 329 | 4.3 | 0.0 | 0.00 | 0.00 | 0.00 | 74 | 989.6 |
| 20260502044506 | 34 | 330 | 4.3 | 0.0 | 0.00 | 0.00 | 0.00 | 70 | 989.1 |
| 20260502043021 | 34 | 332 | 4.3 | 0.0 | 0.00 | 0.00 | 0.00 | 72 | 989.3 |
| 20260502041505 | 34 | 336 | 5.2 | 0.0 | 0.00 | 0.00 | 0.00 | 72 | 989.3 |
| 20260502040019 | 34 | 333 | 5.2 | 0.0 | 0.00 | 0.00 | 0.00 | 72 | 989.3 |
| 20260502034505 | 34 | 327 | 5.2 | 0.0 | 0.00 | 0.00 | 0.00 | 63 | 988.9 |